TimePDT,TemperatureF,Dew PointF,Humidity,Sea Level PressureIn,VisibilityMPH,Wind Direction,Wind SpeedMPH,Gust SpeedMPH,PrecipitationIn,Events,Conditions,WindDirDegrees,DateUTC
12:53 AM,46.0,30.9,56,30.01,10.0,SW,13.8,-,N/A,,Scattered Clouds,230,2013-03-15 07:53:00
1:53 AM,45.0,33.1,63,30.04,10.0,SSW,8.1,-,N/A,,Partly Cloudy,200,2013-03-15 08:53:00
2:53 AM,43.0,33.1,68,30.05,10.0,South,8.1,-,N/A,,Mostly Cloudy,180,2013-03-15 09:53:00
3:53 AM,42.1,34.0,73,30.06,10.0,SSW,9.2,-,N/A,,Mostly Cloudy,200,2013-03-15 10:53:00
4:53 AM,41.0,33.1,73,30.08,10.0,SSW,9.2,-,N/A,,Mostly Cloudy,200,2013-03-15 11:53:00
5:53 AM,41.0,33.1,73,30.09,10.0,South,13.8,-,N/A,,Mostly Cloudy,190,2013-03-15 12:53:00
6:53 AM,39.9,34.0,79,30.11,10.0,SSE,5.8,-,N/A,,Mostly Cloudy,160,2013-03-15 13:53:00
7:46 AM,39.2,37.4,93,30.10,10.0,South,8.1,-,N/A,,Mostly Cloudy,180,2013-03-15 14:46:00
7:53 AM,39.9,37.0,89,30.12,10.0,South,10.4,-,N/A,,Mostly Cloudy,180,2013-03-15 14:53:00
8:53 AM,43.0,39.0,86,30.14,10.0,South,11.5,16.1,N/A,,Mostly Cloudy,190,2013-03-15 15:53:00
9:53 AM,46.0,39.0,76,30.14,10.0,SSW,12.7,-,N/A,,Mostly Cloudy,200,2013-03-15 16:53:00
10:53 AM,48.9,39.9,71,30.15,10.0,SSW,10.4,-,N/A,,Mostly Cloudy,210,2013-03-15 17:53:00
11:53 AM,52.0,39.9,63,30.14,10.0,SSW,13.8,-,N/A,,Mostly Cloudy,210,2013-03-15 18:53:00
12:53 PM,52.0,39.0,61,30.14,10.0,SW,10.4,-,N/A,,Mostly Cloudy,230,2013-03-15 19:53:00
1:53 PM,54.0,36.0,51,30.11,10.0,WSW,16.1,-,N/A,,Mostly Cloudy,240,2013-03-15 20:53:00
2:53 PM,55.0,34.0,45,30.09,10.0,WSW,15.0,-,N/A,,Mostly Cloudy,250,2013-03-15 21:53:00
3:53 PM,55.9,35.1,45,30.09,10.0,West,16.1,-,N/A,,Mostly Cloudy,270,2013-03-15 22:53:00
4:53 PM,55.9,35.1,45,30.08,10.0,SW,17.3,23.0,N/A,,Mostly Cloudy,230,2013-03-15 23:53:00
5:53 PM,54.0,34.0,47,30.07,10.0,WSW,13.8,-,N/A,,Overcast,240,2013-03-16 00:53:00
6:53 PM,52.0,34.0,50,30.07,10.0,WSW,6.9,-,N/A,,Overcast,240,2013-03-16 01:53:00
7:53 PM,50.0,34.0,54,30.08,10.0,SSW,9.2,-,N/A,,Overcast,210,2013-03-16 02:53:00
8:53 PM,48.9,35.1,59,30.08,10.0,SSW,10.4,-,N/A,,Overcast,210,2013-03-16 03:53:00
9:53 PM,46.9,36.0,66,30.07,10.0,SSW,10.4,-,N/A,,Overcast,200,2013-03-16 04:53:00
10:53 PM,46.0,37.9,73,30.06,10.0,SSW,10.4,-,N/A,,Overcast,210,2013-03-16 05:53:00
11:53 PM,44.1,37.9,79,30.04,10.0,SW,10.4,-,N/A,,Overcast,220,2013-03-16 06:53:00